Location: ??????????
(54.7560°N, 39.1389°E)
Time: 04:50:53
(UTC+00:00)

Cosmos 773 Rocket - Pass Details

Date: 19 May 2025
Orbit: 742 x 772 km, 74.1° (Epoch: 19 June)

Event Time Altitude Azimuth Distance (km) Brightness Sun altitude
Exits shadow 20:11:33 - 218° (SW) 2,821 6.6 -13.9°
Reaches altitude 10° 20:13:00 10° 221° (SW) 2,261 6.1 -13.9°
Maximum altitude 20:18:04 62° 302° (WNW) 843 4.4 -14.1°
Drops below altitude 10° 20:23:09 10° 23° (NNE) 2,268 7.3 -14.3°
Sets 20:25:33 0° 27° (NNE) 3,195 8.0 -14.4°
